Terug naar catalogus

XM-1

ActiefCommunicatieGEO
NORAD 26761·PAYLOAD·🇺🇸 United States

Gelanceerd May 8, 2001 vanaf Sea Launch Platform

Loading…

TLE

VersSource: Space-Track

Epoch: Sep 14, 2026, 12:22 UTC

1 26761U 01018A   26257.51559532  .00000069  00000-0  00000-0 0  9994
2 26761   9.0541  60.7261 0001642  18.5969 159.0931  0.99002551 47006

Volg XM-1 in realtime met AllMySat

Download on the App Store